Wind_Speed
29 29 29 29 28 28 28 28 28 28 30 30 30 32 31 31 33 34 35 37 38 38 39 40 40 40 42 42 43 44 44 44 44 43 43 44 44 44 43 42 41 41 40 40
30 30 30 29 27 26 26 27 28 28 29 30 30 31 30 31 32 33 34 35 36 37 38 39 40 41 41 42 43 44 44 45 45 44 44 43 44 45 44 44 43 43 42 41
31 30 29 27 26 24 24 25 26 27 28 28 28 29 28 29 31 31 32 33 33 35 36 38 39 40 41 42 43 44 44 45 46 46 46 45 45 45 45 44 44 44 44 43
30 29 28 26 25 24 24 24 25 26 27 27 26 28 26 27 29 30 30 31 32 34 36 36 38 39 40 42 42 44 45 45 45 46 47 47 47 45 45 45 45 46 45 44
29 28 27 26 24 23 23 24 25 25 26 26 26 28 27 26 27 29 28 29 31 32 33 34 37 39 40 41 43 43 45 46 45 45 45 47 47 46 45 45 45 46 46 45
28 27 26 25 23 22 23 24 24 25 24 25 24 26 27 27 27 28 29 28 28 30 31 33 35 38 40 41 42 43 44 45 46 46 46 47 47 46 45 45 45 45 45 44
27 26 25 25 24 22 23 24 25 25 24 25 24 24 26 26 27 28 29 28 28 29 31 33 35 37 38 40 41 43 44 44 45 46 46 46 47 47 46 46 46 46 46 45
28 27 27 26 24 24 24 25 25 26 26 25 24 24 24 25 26 26 26 27 28 28 30 32 34 35 37 39 39 41 42 43 45 46 46 46 46 47 46 46 47 46 46 46
29 28 28 27 26 25 24 25 25 26 27 26 25 25 24 24 24 25 25 26 27 27 28 30 31 33 35 38 39 40 41 43 44 45 47 47 47 47 47 46 46 47 47 47
29 29 28 27 26 25 25 25 26 26 27 28 26 25 24 24 25 25 25 24 25 26 28 29 31 32 35 36 39 40 41 41 42 44 46 47 46 47 47 47 47 47 46 47
29 30 28 27 26 25 25 26 26 27 26 28 27 25 25 25 25 24 24 24 25 26 27 28 30 30 33 35 37 39 39 40 41 43 45 46 46 47 48 47 47 47 47 48
30 30 30 28 26 26 26 26 26 27 27 27 28 26 25 25 25 25 24 24 25 25 26 27 28 29 31 33 36 38 39 40 41 42 43 44 45 45 47 47 47 48 48 48
31 31 31 30 28 27 27 27 28 28 27 27 27 26 26 26 26 25 25 25 24 24 25 26 27 29 30 32 34 36 38 39 40 41 43 43 44 44 45 45 46 47 47 48
31 31 31 31 30 29 28 27 28 27 27 27 26 26 26 27 27 28 28 27 25 25 26 26 26 28 29 31 33 34 36 37 38 40 42 44 44 44 44 44 44 44 45 46
31 31 30 30 30 30 29 28 27 27 27 28 27 27 27 27 26 27 28 28 27 27 27 27 27 28 29 30 31 33 35 37 38 39 41 43 44 45 45 45 43 43 43 44
31 31 31 30 29 30 29 28 28 28 28 28 28 27 27 27 27 27 27 28 28 29 28 28 27 27 29 30 31 32 34 35 38 40 42 43 45 45 45 44 44 43 44 44
31 32 32 31 30 30 29 29 29 29 29 29 28 27 28 28 28 27 27 27 27 27 27 27 27 28 29 29 30 32 33 34 36 38 40 42 43 44 45 45 45 44 44 45
32 32 32 32 31 31 30 30 30 30 29 28 28 28 28 29 28 27 27 27 27 27 27 28 29 29 29 29 30 31 32 34 35 37 38 39 40 41 43 45 45 45 44 44
32 32 32 33 33 32 30 30 30 30 28 29 29 28 29 28 28 27 27 27 27 28 28 28 30 30 30 30 30 31 32 33 34 35 36 38 39 41 42 43 42 43 44 43
32 32 32 33 33 32 31 31 31 30 29 29 30 29 29 28 28 28 27 27 27 28 28 28 29 29 30 31 30 30 31 32 32 33 35 37 39 40 41 42 42 41 42 42
32 32 32 32 32 32 32 32 31 31 31 30 30 30 29 29 29 29 29 28 28 29 29 29 29 29 30 31 32 31 30 30 32 33 34 35 37 38 39 40 41 41 41 41
33 33 32 32 32 32 32 32 31 31 30 30 30 30 30 29 29 29 29 29 29 29 30 30 30 30 30 30 31 32 32 31 32 33 33 34 35 37 37 38 39 40 41 41
32 32 32 32 31 32 31 31 31 31 31 31 31 30 30 30 29 29 29 29 29 29 30 31 30 30 30 30 30 31 32 32 32 32 33 34 34 35 36 37 37 38 38 39
31 32 32 31 31 31 31 31 31 31 31 32 31 31 31 30 30 29 29 29 29 29 30 30 30 29 29 29 30 30 31 31 31 31 32 33 34 34 35 35 36 36 37 38
32 32 32 31 31 31 31 31 31 31 32 31 31 31 31 30 30 29 29 29 29 29 29 29 29 29 28 28 29 29 30 30 30 30 30 31 32 33 34 34 35 36 36 37
32 33 33 32 31 31 30 31 31 31 31 31 31 31 31 30 30 29 29 29 29 29 28 28 28 28 27 27 27 27 28 29 29 29 29 29 29 30 31 32 33 34 35 35
Wind_Direction
312 310 309 308 302 296 292 288 286 284 282 282 278 274 274 272 268 263 260 258 256 255 254 251 249 247 244 242 242 242 240 239 240 241 240 240 239 241 242 242 242 242 243 243
315 314 313 309 306 299 295 291 289 287 284 283 282 277 275 272 269 267 264 261 259 257 255 252 249 247 244 241 241 240 239 239 239 240 240 241 241 241 242 243 243 243 244 244
318 318 315 311 307 302 298 297 295 292 288 285 284 279 278 275 271 268 266 264 261 258 254 253 250 247 244 241 240 240 239 240 240 241 241 240 240 241 243 242 243 244 245 246
319 320 317 312 309 306 302 300 298 295 292 290 286 282 280 278 276 272 268 266 262 259 255 253 250 246 243 241 240 239 239 240 240 241 241 241 241 242 243 243 243 244 245 247
321 321 319 314 311 308 306 305 303 299 295 291 288 285 284 283 280 277 272 266 263 260 257 253 249 245 245 243 242 241 240 239 239 240 240 240 241 242 243 243 243 244 245 247
321 320 320 316 312 309 309 307 305 302 300 297 294 289 288 286 284 281 275 269 264 261 258 254 251 247 245 244 243 241 239 239 240 241 241 241 241 242 242 243 244 244 245 247
321 320 319 316 310 308 309 310 310 308 305 302 297 292 290 288 286 284 279 271 266 264 259 254 251 248 247 245 245 242 240 240 241 241 241 241 241 241 243 243 245 246 246 247
319 318 318 317 312 308 311 312 312 311 308 305 299 294 295 293 289 284 279 274 271 266 260 256 253 251 248 246 245 243 242 241 241 240 241 241 242 242 243 244 246 247 247 247
319 317 316 316 312 310 310 311 311 308 308 307 301 297 296 293 290 287 283 277 273 269 264 259 256 253 249 246 245 243 242 242 241 239 240 241 242 242 243 245 246 247 246 246
317 316 316 316 312 308 309 310 311 311 308 307 304 298 294 293 291 291 287 283 276 272 267 262 258 254 250 248 246 244 244 244 243 241 241 241 242 244 245 247 247 247 247 247
316 314 315 315 314 310 308 308 308 308 307 304 301 299 294 291 291 291 288 285 282 277 271 266 261 257 253 250 247 246 246 246 245 243 242 242 243 245 246 247 248 247 248 248
316 314 313 313 313 311 309 310 310 307 306 302 299 299 297 289 289 287 285 285 283 280 274 269 265 261 256 252 250 249 249 249 248 245 243 244 245 246 246 247 248 249 250 250
315 314 312 312 310 310 309 310 310 307 304 302 299 298 296 291 288 286 285 285 284 281 276 272 268 265 260 256 255 254 252 252 251 248 245 245 246 248 248 249 249 249 250 251
312 312 312 311 309 307 307 307 308 307 304 301 300 299 295 293 286 282 283 283 283 282 277 273 271 268 262 259 258 257 255 254 253 250 248 247 247 248 250 250 249 249 250 251
310 311 311 310 309 306 304 305 306 305 302 301 300 299 297 294 290 285 282 280 280 281 277 274 272 270 266 262 261 259 257 256 255 253 251 251 250 249 250 249 249 250 250 250
310 309 310 310 310 307 304 302 301 302 302 301 301 299 296 294 292 289 285 282 279 279 277 274 272 271 269 266 263 260 259 258 257 255 254 253 252 251 251 250 250 251 252 252
310 309 309 310 310 309 307 305 301 300 301 300 299 298 296 296 293 290 287 284 282 279 278 275 274 272 271 270 266 263 261 260 260 258 257 255 253 252 251 251 252 254 255 256
309 309 309 309 309 308 310 307 304 301 300 299 298 299 296 295 294 291 288 286 284 281 278 276 276 275 273 272 271 268 265 262 261 259 258 256 254 253 254 254 255 255 255 256
308 308 308 309 308 307 308 308 306 303 300 298 298 297 297 295 293 291 289 288 285 283 282 280 277 274 273 273 272 271 268 266 264 260 258 258 256 254 254 255 256 256 256 255
307 306 307 308 308 309 310 307 306 304 302 300 297 296 296 295 292 290 289 288 286 285 285 284 281 277 274 273 273 273 270 268 266 263 261 259 258 256 256 257 257 257 257 256
306 306 306 306 307 308 309 308 306 304 304 301 298 297 295 295 294 292 289 289 288 287 286 285 284 280 277 274 274 274 272 269 267 266 264 261 258 258 258 258 258 257 257 257
305 305 306 306 307 308 309 308 306 303 302 301 300 297 296 295 295 293 290 289 288 288 287 286 285 282 279 276 275 274 273 271 269 266 264 261 259 258 258 258 258 257 256 256
304 304 304 305 307 308 308 307 306 304 302 301 300 298 297 295 295 294 291 289 289 288 286 286 285 283 280 278 275 275 274 273 271 268 265 262 260 258 258 257 257 256 256 255
302 302 301 304 306 306 305 305 305 305 303 301 299 297 296 296 295 294 292 289 288 288 287 286 285 283 282 280 277 275 274 273 271 269 266 263 260 258 258 257 257 256 256 255
302 300 300 301 303 302 303 303 304 303 304 302 301 299 296 294 294 294 294 292 290 288 287 286 285 284 283 282 280 277 274 272 270 269 268 265 262 259 257 257 257 257 256 256
299 299 299 300 300 300 302 302 303 304 304 303 301 300 298 295 293 292 292 292 292 290 288 286 284 284 283 283 283 280 276 272 271 270 269 266 264 261 259 258 258 258 257 256
Height
5692 5689 5684 5680 5677 5674 5672 5670 5668 5667 5664 5663 5661 5659 5659 5658 5658 5659 5660 5661 5662 5664 5666 5668 5671 5674 5678 5682 5687 5692 5697 5702 5706 5711 5715 5719 5723 5728 5732 5736 5739 5743 5747 5750
5687 5683 5678 5673 5670 5668 5665 5663 5661 5660 5657 5655 5653 5652 5651 5651 5650 5650 5651 5652 5653 5654 5656 5658 5661 5664 5668 5672 5677 5682 5687 5692 5696 5701 5705 5709 5714 5718 5722 5726 5730 5734 5738 5741
5681 5677 5671 5668 5664 5662 5659 5657 5655 5653 5650 5648 5646 5644 5644 5643 5642 5642 5642 5643 5644 5645 5647 5649 5651 5655 5658 5663 5667 5672 5676 5681 5686 5690 5695 5699 5704 5708 5712 5717 5721 5725 5728 5732
5676 5671 5667 5663 5659 5656 5654 5652 5649 5646 5643 5641 5639 5636 5637 5636 5635 5634 5634 5634 5635 5636 5638 5640 5643 5646 5649 5653 5657 5661 5666 5670 5675 5679 5684 5688 5694 5698 5703 5707 5711 5715 5718 5722
5671 5666 5662 5658 5655 5651 5649 5647 5644 5641 5637 5635 5633 5629 5630 5629 5628 5627 5627 5627 5627 5629 5630 5632 5635 5638 5641 5644 5648 5652 5656 5660 5664 5668 5672 5677 5683 5688 5692 5696 5700 5704 5708 5712
5666 5661 5657 5653 5650 5647 5644 5642 5639 5635 5631 5628 5627 5623 5622 5621 5621 5620 5620 5619 5620 5620 5622 5624 5626 5628 5632 5635 5638 5641 5645 5649 5653 5657 5661 5667 5672 5677 5682 5686 5690 5694 5698 5701
5661 5657 5653 5649 5646 5643 5640 5637 5633 5628 5624 5622 5621 5617 5616 5615 5614 5613 5613 5613 5612 5612 5613 5615 5617 5619 5622 5625 5628 5631 5635 5639 5643 5646 5651 5656 5662 5667 5671 5676 5679 5683 5687 5690
5656 5653 5649 5645 5641 5638 5635 5631 5628 5623 5619 5617 5615 5612 5612 5610 5608 5607 5606 5605 5605 5605 5606 5607 5609 5611 5613 5616 5618 5621 5625 5629 5632 5637 5641 5646 5651 5656 5660 5664 5668 5672 5676 5680
5651 5648 5645 5640 5636 5634 5630 5627 5623 5619 5615 5612 5609 5608 5607 5605 5603 5601 5599 5599 5598 5598 5599 5600 5601 5603 5605 5607 5610 5612 5615 5619 5622 5626 5631 5636 5640 5645 5649 5653 5657 5661 5664 5668
5646 5643 5641 5636 5632 5629 5626 5622 5619 5614 5609 5606 5604 5603 5602 5599 5597 5596 5594 5592 5592 5592 5592 5592 5593 5594 5596 5599 5601 5604 5606 5609 5612 5616 5621 5626 5629 5634 5638 5642 5646 5650 5653 5656
5642 5638 5635 5632 5627 5624 5621 5618 5613 5609 5605 5601 5598 5600 5597 5595 5592 5590 5588 5587 5586 5585 5585 5585 5586 5587 5589 5591 5593 5595 5598 5600 5603 5607 5610 5615 5619 5622 5627 5631 5634 5638 5641 5645
5637 5633 5629 5627 5623 5619 5615 5612 5608 5605 5601 5597 5594 5596 5591 5589 5586 5584 5583 5582 5581 5580 5579 5578 5579 5580 5581 5583 5585 5587 5589 5591 5594 5597 5600 5604 5608 5611 5615 5619 5623 5626 5629 5633
5631 5627 5623 5620 5619 5615 5610 5607 5603 5599 5596 5592 5589 5591 5585 5583 5581 5579 5577 5576 5575 5574 5573 5573 5573 5573 5574 5575 5577 5578 5580 5582 5584 5587 5590 5594 5597 5601 5604 5608 5610 5614 5616 5620
5626 5622 5619 5615 5611 5608 5605 5602 5598 5594 5590 5587 5585 5583 5581 5577 5575 5573 5572 5570 5569 5568 5567 5566 5566 5566 5567 5568 5569 5570 5571 5573 5575 5577 5581 5584 5588 5590 5593 5596 5599 5602 5604 5608
5620 5617 5613 5610 5606 5602 5599 5596 5593 5589 5585 5582 5580 5577 5574 5571 5569 5567 5566 5564 5563 5562 5561 5560 5560 5560 5560 5560 5561 5562 5563 5564 5566 5568 5571 5574 5577 5580 5583 5586 5588 5590 5593 5595
5614 5610 5607 5604 5601 5596 5593 5590 5587 5583 5580 5576 5573 5571 5568 5565 5563 5561 5559 5557 5556 5556 5554 5554 5553 5553 5552 5552 5553 5553 5554 5555 5557 5559 5562 5564 5566 5569 5572 5575 5577 5579 5582 5584
5608 5604 5600 5597 5594 5590 5587 5584 5580 5577 5573 5570 5567 5565 5561 5559 5556 5554 5552 5551 5549 5548 5547 5546 5546 5546 5545 5545 5545 5545 5545 5546 5547 5549 5551 5553 5555 5558 5560 5563 5566 5568 5570 5573
5602 5597 5593 5590 5587 5583 5583 5577 5573 5570 5567 5563 5560 5557 5554 5552 5550 5548 5546 5544 5542 5541 5540 5539 5538 5538 5537 5537 5536 5536 5536 5537 5537 5538 5540 5542 5544 5547 5549 5551 5554 5556 5559 5561
5595 5591 5587 5583 5578 5576 5574 5570 5565 5562 5560 5557 5554 5551 5548 5545 5543 5541 5539 5537 5535 5534 5533 5531 5530 5529 5529 5528 5528 5527 5527 5527 5528 5528 5529 5531 5533 5536 5538 5540 5542 5545 5547 5549
5589 5584 5581 5576 5571 5568 5568 5563 5558 5556 5554 5551 5547 5544 5541 5538 5536 5535 5532 5530 5528 5526 5525 5523 5522 5521 5520 5519 5519 5518 5518 5518 5518 5518 5519 5520 5522 5524 5526 5529 5531 5533 5535 5537
5581 5577 5573 5569 5564 5562 5559 5555 5551 5549 5547 5543 5539 5536 5533 5531 5528 5526 5524 5522 5520 5518 5516 5515 5513 5512 5511 5510 5509 5508 5508 5508 5508 5508 5509 5510 5511 5513 5515 5517 5519 5521 5523 5525
5573 5569 5566 5562 5558 5557 5551 5547 5544 5542 5538 5535 5531 5529 5526 5523 5520 5518 5515 5513 5511 5510 5508 5506 5504 5503 5501 5500 5499 5499 5499 5499 5498 5498 5499 5499 5501 5502 5504 5506 5507 5509 5511 5514
5566 5563 5558 5556 5554 5549 5544 5540 5537 5533 5530 5527 5524 5521 5518 5515 5513 5510 5507 5505 5503 5501 5499 5497 5495 5494 5492 5491 5490 5490 5489 5488 5488 5488 5488 5489 5490 5491 5493 5495 5496 5498 5500 5502
5558 5555 5551 5548 5545 5541 5537 5533 5530 5526 5523 5519 5516 5513 5510 5507 5505 5502 5499 5497 5495 5492 5490 5488 5486 5484 5483 5482 5481 5480 5479 5479 5478 5478 5478 5479 5480 5481 5482 5484 5485 5487 5488 5490
5550 5546 5543 5540 5538 5534 5530 5526 5523 5519 5515 5511 5508 5505 5502 5499 5496 5494 5491 5489 5486 5484 5481 5479 5477 5475 5474 5473 5472 5471 5470 5469 5469 5469 5469 5469 5469 5470 5472 5473 5474 5476 5478 5479
5542 5538 5534 5532 5529 5526 5523 5519 5515 5511 5508 5504 5500 5497 5494 5491 5488 5485 5483 5481 5478 5475 5473 5471 5469 5467 5466 5464 5463 5462 5461 5460 5460 5460 5460 5459 5460 5461 5462 5463 5465 5465 5467 5469